View from above orbital plane
|
View from above satellite
|
Ground track
|
The orbit data is extracted from the following two-line orbital elements,
1 23753U 95072C 21059.52298396 -.00000051 00000-0 -16588-5 0 9995
2 23753 98.9619 85.7602 0002880 316.2501 43.8450 14.26597397310043
Epoch (UTC): | 28 February 2021 12:33:05 |
Eccentricity: | 0.0002880 |
inclination: | 98.9619° |
perigee height: | 801 km |
apogee height: | 805 km |
right ascension of ascending node: | 85.7602° |
argument of perigee: | 316.2501° |
revolutions per day: | 14.26597397 |
mean anomaly at epoch: | 43.8450° |
orbit number at epoch: | 31004 |
The dashed part of the orbit path shows where the satellite is in the earth's shadow,
|
|